Location: Lansingburgh
(42.7845°N, 73.6696°W)
Time: 22:06:05
(UTC+00:00)

Envisat - Visible Passes

Search period start: 04 October 2024 00:00
Search period end: 14 October 2024 00:00
Orbit: 762 x 764 km, 98.3° (Epoch: 04 October)

Date Brightness Start Highest point End Pass type
(mag) Time Alt. Az. Time Alt. Az. Time Alt. Az.
04 Oct 5.3 07:12:31 10° NE 07:14:47 21° ENE 07:14:47 21° ENE visible
04 Oct 3.8 08:51:09 10° N 08:54:55 35° NW 08:54:55 35° NW visible
05 Oct 3.7 08:13:22 10° NNE 08:16:53 45° N 08:16:53 45° N visible
05 Oct 4.9 09:55:00 10° NW 09:56:36 11° WNW 09:57:02 11° WNW visible
06 Oct 4.7 07:36:05 10° NNE 07:38:51 29° NE 07:38:51 29° NE visible
06 Oct 4.2 09:15:38 10° NNW 09:18:59 23° NW 09:18:59 23° NW visible
07 Oct 5.7 06:59:30 10° NE 07:00:48 15° ENE 07:00:48 15° ENE visible
07 Oct 3.8 08:37:32 10° N 08:40:56 38° NNW 08:40:56 38° NNW visible
08 Oct 4.3 07:59:55 10° NNE 08:02:53 36° NNE 08:02:53 36° NNE visible
08 Oct 4.7 09:40:33 10° NNW 09:43:02 15° NW 09:43:02 15° NW visible
09 Oct 5.2 07:22:49 10° NNE 07:24:50 21° NE 07:24:50 21° NE visible
09 Oct 4.2 09:01:52 10° N 09:04:58 27° NW 09:04:58 27° NW visible
10 Oct 6.0 06:46:42 10° NE 06:46:47 10° NE 06:46:47 10° NE visible
10 Oct 4.1 08:23:57 10° N 08:26:55 35° N 08:26:55 35° N visible
11 Oct 4.8 07:46:30 10° NNE 07:48:51 27° NNE 07:48:51 27° NNE visible
11 Oct 4.6 09:26:29 10° NNW 09:29:00 18° NW 09:29:00 18° NW visible
12 Oct 5.7 07:09:38 10° NE 07:10:48 15° NE 07:10:48 15° NE visible
12 Oct 4.2 08:48:09 10° N 08:50:56 28° NNW 08:50:56 28° NNW visible
13 Oct 4.5 08:10:25 10° NNE 08:12:52 29° NNE 08:12:52 29° NNE visible
13 Oct 4.9 09:51:48 10° NW 09:53:00 12° NW 09:53:00 12° NW visible
